DW9936 Weather Reports


Display with metric or nautical units.
time (UTC)temp
F
wind
direction
speed
MPH
gust
MPH
rain 1hr
in
rain 24hr
in
rain mn
in
humidity
%
barometer
mb
20260506044524 58 236 0.0 0.0 0.00 0.00 0.00 82 1008.0
20260506043020 58 242 0.0 2.0 0.00 0.00 0.00 82 1007.9
20260506041525 57 360 0.0 2.0 0.00 0.00 0.00 83 1007.9
20260506040012 57 310 0.0 1.0 0.00 0.00 0.00 82 1007.7
20260506034509 57 340 0.0 0.0 0.00 0.00 0.00 82 1007.4
20260506033007 58 340 0.0 2.0 0.00 0.00 0.00 81 1007.2
20260506031512 58 329 0.0 2.0 0.00 0.00 0.00 79 1007.2
20260506030007 59 334 0.0 0.0 0.00 0.00 0.00 79 1007.4
20260506024502 59 334 0.0 0.0 0.00 0.00 0.00 78 1007.5
20260506023002 59 333 0.0 1.0 0.00 0.00 0.00 78 1007.3
20260506021600 59 297 0.0 1.0 0.00 0.00 0.00 77 1007.3
20260506020059 59 286 0.0 1.0 0.00 0.00 0.00 77 1007.3
20260506014559 60 227 0.0 0.0 0.00 0.00 0.00 76 1007.3
20260506013057 60 227 0.0 0.0 0.00 0.00 0.00 76 1007.1
20260506011555 60 227 0.0 1.0 0.00 0.00 0.00 77 1007.0
20260506010053 60 360 0.0 0.0 0.00 0.00 0.00 75 1006.8
20260506004555 60 360 0.0 0.0 0.00 0.00 0.00 75 1006.8
20260506003049 60 360 0.0 0.0 0.00 0.00 0.00 73 1006.8
20260506001607 61 360 0.0 0.0 0.00 0.00 0.00 72 1006.5
20260506000047 62 360 0.0 0.0 0.00 0.00 0.00 70 1006.2
20260505234547 62 360 0.0 0.0 0.00 0.00 0.00 69 1006.0
20260505233037 62 5 0.0 0.0 0.00 0.00 0.00 67 1005.8
20260505231541 63 5 0.0 0.0 0.00 0.00 0.00 65 1005.7
20260505230036 63 5 0.0 0.0 0.00 0.00 0.00 63 1005.7
20260505224536 64 5 0.0 0.0 0.00 0.00 0.00 62 1005.4
20260505223033 65 5 0.0 0.0 0.00 0.00 0.00 59 1005.1
20260505221520 66 5 0.0 0.0 0.00 0.00 0.00 57 1004.9
20260505220027 67 320 0.0 0.0 0.00 0.00 0.00 55 1004.6
20260505214524 68 320 0.0 0.0 0.00 0.00 0.00 53 1004.4
20260505213018 68 320 1.0 3.0 0.00 0.00 0.00 53 1004.3
20260505211514 68 13 0.0 2.0 0.00 0.00 0.00 53 1004.2
20260505210015 68 331 0.0 3.0 0.00 0.00 0.00 52 1003.9
20260505204523 67 339 0.0 8.0 0.00 0.00 0.00 54 1003.8
20260505203013 65 355 0.0 1.0 0.00 0.00 0.00 56 1003.6
20260505201516 66 61 0.0 0.0 0.00 0.00 0.00 56 1003.4
20260505200012 66 61 0.0 0.0 0.00 0.00 0.00 55 1003.0
20260505194511 67 63 0.0 0.0 0.00 0.00 0.00 54 1003.0
20260505193032 68 63 0.0 0.0 0.00 0.00 0.00 52 1002.8
20260505191511 69 86 0.0 1.0 0.00 0.00 0.00 51 1002.7
20260505190026 70 90 0.0 1.0 0.00 0.00 0.00 48 1002.6
20260505184510 71 92 0.0 3.0 0.00 0.00 0.00 45 1002.5
20260505183016 72 69 0.0 2.0 0.00 0.00 0.00 42 1002.3
20260505181515 74 239 0.0 0.0 0.00 0.00 0.00 39 1002.2
20260505180010 75 239 0.0 0.0 0.00 0.00 0.00 38 1002.2
20260505174508 76 239 0.0 0.0 0.00 0.00 0.00 36 1002.2
20260505173008 77 238 0.0 3.0 0.00 0.00 0.00 34 1002.1
20260505171521 78 236 0.0 3.0 0.00 0.00 0.00 33 1001.9
20260505170012 79 333 0.0 4.0 0.00 0.00 0.00 32 1001.9
20260505164509 80 245 0.0 6.0 0.00 0.00 0.00 31 1001.9
20260505163006 81 223 0.0 6.0 0.00 0.00 0.00 30 1001.9
20260505161505 83 269 3.0 9.0 0.00 0.00 0.00 28 1002.0
20260505153002 84 336 0.0 1.0 0.00 0.00 0.00 26 1002.1
20260505151559 84 336 0.0 2.0 0.00 0.00 0.00 26 1002.3
20260505150115 84 71 0.0 4.0 0.00 0.00 0.00 27 1002.5
20260505124533 81 101 1.0 6.0 0.00 0.00 0.00 34 1004.9
20260505123046 80 115 1.0 4.0 0.00 0.00 0.00 32 1005.1
20260505121533 80 132 0.0 4.0 0.00 0.00 0.00 36 1005.4
20260505120036 80 72 0.0 5.0 0.00 0.00 0.00 39 1005.6
20260505114527 79 119 0.0 4.0 0.00 0.00 0.00 40 1005.8
20260505113019 78 63 1.0 4.0 0.00 0.00 0.00 41 1006.1
20260505111519 78 96 0.0 6.0 0.00 0.00 0.00 40 1006.2
20260505101507 75 88 0.0 5.0 0.00 0.00 0.00 44 1007.0
20260505100002 74 214 1.0 5.0 0.00 0.00 0.00 46 1007.1
20260505094607 73 96 0.0 5.0 0.00 0.00 0.00 46 1007.5
20260505093056 73 134 0.0 7.0 0.00 0.00 0.00 46 1007.6
20260505091552 71 161 0.0 4.0 0.00 0.00 0.00 48 1007.7
20260505090058 71 121 0.0 4.0 0.00 0.00 0.00 48 1007.9
20260505084544 70 125 1.0 4.0 0.00 0.00 0.00 48 1007.9
20260505083042 70 69 0.0 3.0 0.00 0.00 0.00 48 1007.9
20260505081544 69 69 0.0 3.0 0.00 0.00 0.00 49 1008.2
20260505080047 67 98 1.0 4.0 0.00 0.00 0.00 51 1008.3
20260505074530 67 98 0.0 3.0 0.00 0.00 0.00 51 1008.4
20260505073036 67 82 0.0 3.0 0.00 0.00 0.00 50 1008.5
20260505071526 67 96 0.0 2.0 0.00 0.00 0.00 50 1008.5
20260505070024 66 47 0.0 3.0 0.00 0.00 0.00 51 1008.5
20260505064520 66 35 0.0 2.0 0.00 0.00 0.00 51 1008.7
20260505063016 65 24 0.0 1.0 0.00 0.00 0.00 55 1008.7
20260505061516 62 317 0.0 0.0 0.00 0.00 0.00 60 1008.7
20260505060015 60 317 0.0 1.0 0.00 0.00 0.00 64 1008.8
20260505054507 57 317 0.0 1.0 0.00 0.00 0.00 68 1008.8
20260505053002 55 316 0.0 0.0 0.00 0.00 0.00 71 1008.8